Flag for U.S.A. Weather past 2 weeks in Warren, Michigan, U.S.A.

Now
73 °F

Passing clouds.


Feels Like: 75 °F
Forecast: 69 / 85 °F
Wind: 7 mph from South

Location: Detroit City Airport

Current Time: Aug 30, 2014 at 6:22:24 AM

Latest Report: Aug 30, 2014 at 5:53 AM


Visibility: 10 mi

Pressure: 29.96 "Hg

Humidity: 71%

Dew point: 63 °F

Location of WarrenLocation

Historic Weather in Warren — Graph

°F

Warren temperature yesterday

Maximum temperature yesterday: 77 °F (at 4:53 PM)
Minimum temperature yesterday: 62 °F (at 3:53 AM)
Average temperature yesterday: 69 °F

Past Weeks' High & Low Weather Summary

 TemperatureHumidityPressure
High91 °F (Aug 26, 2:53 PM)90% (Aug 23, 6:53 AM)30.17 "Hg (Aug 23, 6:53 AM)
Low53 °F (Aug 15, 5:53 AM)30% (Aug 15, 2:53 PM)29.74 "Hg (Aug 19, 5:53 PM)
Average73 °F67%29.99 "Hg
* Reported Aug 15 4:53 AM — Aug 30 4:53 AM, Warren, Weather by CustomWeather, © 2014

Note: Actual official high and low records may vary slightly from our data, if they occured in-between our weather recording intervals... More about our weather records

Advertising

Warren weather history for previous 24 hours

 ConditionsComfort  
Time TempWeatherWind HumidityBarometerVisibility
4:53 AM
Aug 30
72 °FClear.7 mph73%29.97 "Hg10 mi
3:53 AM73 °FPassing clouds.6 mph71%29.98 "Hg10 mi
2:53 AM72 °FClear.7 mph73%29.98 "Hg10 mi
1:53 AM72 °FClear.5 mph71%30.02 "Hg10 mi
12:53 AM72 °FClear.7 mph71%30.03 "Hg10 mi
11:53 PM
Aug 29
71 °FPassing clouds.5 mph71%30.03 "Hg10 mi
10:53 PM71 °FClear.7 mph68%30.03 "Hg10 mi
9:53 PM71 °FPassing clouds.8 mph66%30.04 "Hg10 mi
8:53 PM71 °FSunny.9 mph61%30.03 "Hg10 mi
7:53 PM73 °FSunny.9 mph51%30.03 "Hg10 mi
6:53 PM75 °FSunny.9 mph48%30.05 "Hg10 mi
5:53 PM77 °FSunny.8 mph36%30.06 "Hg10 mi
4:53 PM77 °FSunny.8 mph37%30.06 "Hg10 mi
2:53 PM75 °FSunny.8 mph48%30.09 "Hg10 mi
1:53 PM74 °FSunny.9 mph52%30.11 "Hg10 mi
12:53 PM73 °FSunny.12 mph48%30.12 "Hg10 mi
11:53 AM72 °FSunny.14 mph53%30.13 "Hg10 mi
10:53 AM72 °FSunny.13 mph53%30.13 "Hg10 mi
9:53 AM68 °FSunny.6 mph63%30.15 "Hg10 mi
8:53 AM67 °FSunny.9 mph63%30.14 "Hg10 mi
7:53 AM66 °FSunny.5 mph68%30.14 "Hg10 mi
6:53 AM63 °FClear.3 mph75%30.13 "Hg10 mi
Weather by CustomWeather, © 2014

See weather overviewHow to use our weather pages